| time (UTC) | temp C | wind direction | speed KPH | gust KPH | rain 1hr cm | rain 24hr cm | rain mn cm | humidity % | barometer mb |
| 20260901190017 | 36 | 90 | 6.4 | 12.9 | 0.00 | 0.00 | 0.00 | 40 | 1015.2 |
| 20260901185017 | 36 | 45 | 8.0 | 20.9 | 0.00 | 0.00 | 0.00 | 41 | 1015.3 |
| 20260901184017 | 36 | 68 | 3.2 | 11.3 | 0.00 | 0.00 | 0.00 | 43 | 1015.6 |
| 20260901183017 | 36 | 90 | 12.9 | 22.5 | 0.00 | 0.00 | 0.00 | 43 | 1015.9 |
| 20260901182017 | 36 | 113 | 4.8 | 14.5 | 0.00 | 0.00 | 0.00 | 40 | 1016.0 |
| 20260901181017 | 36 | 135 | 4.8 | 16.1 | 0.00 | 0.00 | 0.00 | 44 | 1016.0 |
| 20260901180017 | 35 | 0.0 | 0.0 | 0.00 | 0.00 | 0.00 | 44 | 1016.1 | |
| 20260901175017 | 36 | 68 | 9.7 | 16.1 | 0.00 | 0.00 | 0.00 | 44 | 1016.3 |
| 20260901174037 | 36 | 158 | 3.2 | 14.5 | 0.00 | 0.00 | 0.00 | 43 | 1016.5 |
| 20260901173017 | 36 | 68 | 4.8 | 12.9 | 0.00 | 0.00 | 0.00 | 43 | 1016.6 |
| 20260901172017 | 36 | 90 | 6.4 | 16.1 | 0.00 | 0.00 | 0.00 | 44 | 1016.7 |
| 20260901171037 | 36 | 158 | 4.8 | 14.5 | 0.00 | 0.00 | 0.00 | 45 | 1016.8 |
| 20260901170017 | 35 | 113 | 9.7 | 19.3 | 0.00 | 0.00 | 0.00 | 45 | 1016.9 |
| 20260901165017 | 35 | 90 | 8.0 | 16.1 | 0.00 | 0.00 | 0.00 | 45 | 1017.1 |
| 20260901164017 | 35 | 135 | 6.4 | 19.3 | 0.00 | 0.00 | 0.00 | 46 | 1017.3 |
| 20260901163017 | 35 | 135 | 6.4 | 19.3 | 0.00 | 0.00 | 0.00 | 47 | 1017.2 |
| 20260901162017 | 35 | 113 | 6.4 | 19.3 | 0.00 | 0.00 | 0.00 | 48 | 1017.2 |
| 20260901161017 | 35 | 0.0 | 6.4 | 0.00 | 0.00 | 0.00 | 49 | 1017.2 | |
| 20260901160017 | 34 | 158 | 4.8 | 11.3 | 0.00 | 0.00 | 0.00 | 49 | 1017.1 |
| 20260901155017 | 34 | 180 | 3.2 | 12.9 | 0.00 | 0.00 | 0.00 | 50 | 1017.2 |
| 20260901154037 | 33 | 135 | 4.8 | 14.5 | 0.00 | 0.00 | 0.00 | 51 | 1017.2 |
| 20260901153037 | 33 | 158 | 4.8 | 16.1 | 0.00 | 0.00 | 0.00 | 52 | 1017.2 |
| 20260901152037 | 33 | 158 | 1.6 | 8.0 | 0.00 | 0.00 | 0.00 | 53 | 1017.0 |
| 20260901151017 | 32 | 135 | 3.2 | 12.9 | 0.00 | 0.00 | 0.00 | 54 | 1017.1 |
| 20260901150017 | 32 | 158 | 4.8 | 14.5 | 0.00 | 0.00 | 0.00 | 55 | 1017.1 |
| 20260901145017 | 32 | 158 | 1.6 | 11.3 | 0.00 | 0.00 | 0.00 | 57 | 1017.2 |
| 20260901144017 | 31 | 0.0 | 1.6 | 0.00 | 0.00 | 0.00 | 58 | 1017.3 | |
| 20260901143017 | 31 | 0.0 | 0.0 | 0.00 | 0.00 | 0.00 | 60 | 1017.3 | |
| 20260901142017 | 30 | 0.0 | 6.4 | 0.00 | 0.00 | 0.00 | 62 | 1017.3 | |
| 20260901141017 | 30 | 135 | 1.6 | 6.4 | 0.00 | 0.00 | 0.00 | 65 | 1017.4 |
| 20260901140017 | 29 | 113 | 1.6 | 11.3 | 0.00 | 0.00 | 0.00 | 68 | 1017.3 |
| 20260901135017 | 28 | 113 | 1.6 | 4.8 | 0.00 | 0.00 | 0.00 | 70 | 1017.3 |
| 20260901134037 | 28 | 113 | 4.8 | 6.4 | 0.00 | 0.00 | 0.00 | 71 | 1017.4 |
| 20260901133017 | 27 | 135 | 4.8 | 11.3 | 0.00 | 0.00 | 0.00 | 72 | 1017.3 |
| 20260901132037 | 27 | 135 | 3.2 | 6.4 | 0.00 | 0.00 | 0.00 | 73 | 1017.1 |
| 20260901131017 | 26 | 113 | 1.6 | 3.2 | 0.00 | 0.00 | 0.00 | 75 | 1017.1 |
| 20260901130017 | 26 | 158 | 1.6 | 6.4 | 0.00 | 0.00 | 0.00 | 76 | 1016.9 |
| 20260901125037 | 26 | 158 | 1.6 | 6.4 | 0.00 | 0.00 | 0.00 | 76 | 1016.9 |
| 20260901124036 | 26 | 0.0 | 0.0 | 0.00 | 0.00 | 0.00 | 76 | 1016.9 | |
| 20260901123017 | 25 | 0.0 | 0.0 | 0.00 | 0.00 | 0.00 | 75 | 1016.6 | |
| 20260901122017 | 26 | 0.0 | 0.0 | 0.00 | 0.00 | 0.00 | 75 | 1016.4 | |
| 20260901121016 | 26 | 0.0 | 0.0 | 0.00 | 0.00 | 0.00 | 74 | 1016.4 | |
| 20260901120017 | 26 | 0.0 | 0.0 | 0.00 | 0.00 | 0.00 | 74 | 1016.4 | |
| 20260901115017 | 26 | 0.0 | 0.0 | 0.00 | 0.00 | 0.00 | 73 | 1016.2 | |
| 20260901114037 | 26 | 0.0 | 0.0 | 0.00 | 0.00 | 0.00 | 73 | 1016.3 | |
| 20260901113017 | 26 | 0.0 | 0.0 | 0.00 | 0.00 | 0.00 | 73 | 1016.2 | |
| 20260901112017 | 26 | 0.0 | 3.2 | 0.00 | 0.00 | 0.00 | 72 | 1016.1 | |
| 20260901111016 | 26 | 0.0 | 0.0 | 0.00 | 0.00 | 0.00 | 72 | 1016.1 | |
| 20260901110016 | 26 | 0.0 | 3.2 | 0.00 | 0.00 | 0.00 | 71 | 1016.0 | |
| 20260901105016 | 27 | 158 | 1.6 | 9.7 | 0.00 | 0.00 | 0.00 | 71 | 1016.0 |
| 20260901104017 | 27 | 0.0 | 8.0 | 0.00 | 0.00 | 0.00 | 70 | 1016.0 | |
| 20260901103016 | 27 | 158 | 1.6 | 9.7 | 0.00 | 0.00 | 0.00 | 70 | 1016.0 |
| 20260901102017 | 27 | 158 | 1.6 | 9.7 | 0.00 | 0.00 | 0.00 | 70 | 1016.0 |
| 20260901101036 | 27 | 158 | 1.6 | 11.3 | 0.00 | 0.00 | 0.00 | 70 | 1015.9 |
| 20260901100016 | 27 | 158 | 1.6 | 9.7 | 0.00 | 0.00 | 0.00 | 69 | 1015.9 |
| 20260901095017 | 27 | 158 | 1.6 | 8.0 | 0.00 | 0.00 | 0.00 | 69 | 1016.1 |
| 20260901094036 | 27 | 158 | 1.6 | 6.4 | 0.00 | 0.00 | 0.00 | 69 | 1016.2 |
| 20260901093017 | 27 | 158 | 1.6 | 9.7 | 0.00 | 0.00 | 0.00 | 68 | 1016.2 |
| 20260901092016 | 27 | 0.0 | 3.2 | 0.00 | 0.00 | 0.00 | 68 | 1016.2 | |
| 20260901091016 | 27 | 158 | 1.6 | 16.1 | 0.00 | 0.00 | 0.00 | 67 | 1016.4 |
| 20260901090037 | 27 | 135 | 6.4 | 14.5 | 0.00 | 0.00 | 0.00 | 66 | 1016.3 |
| 20260901085016 | 27 | 158 | 6.4 | 16.1 | 0.00 | 0.00 | 0.00 | 66 | 1016.3 |
| 20260901084015 | 28 | 158 | 4.8 | 12.9 | 0.00 | 0.00 | 0.00 | 65 | 1016.4 |
| 20260901083015 | 28 | 135 | 6.4 | 14.5 | 0.00 | 0.00 | 0.00 | 64 | 1016.3 |
| 20260901082016 | 28 | 135 | 11.3 | 19.3 | 0.00 | 0.00 | 0.00 | 64 | 1016.3 |
| 20260901081016 | 28 | 158 | 8.0 | 19.3 | 0.00 | 0.00 | 0.00 | 63 | 1016.2 |
| 20260901080015 | 28 | 135 | 9.7 | 22.5 | 0.00 | 0.00 | 0.00 | 63 | 1016.1 |
| 20260901075015 | 28 | 158 | 9.7 | 20.9 | 0.00 | 0.00 | 0.00 | 62 | 1016.1 |
| 20260901074016 | 27 | 158 | 8.0 | 12.9 | 0.00 | 0.00 | 0.00 | 62 | 1016.1 |
| 20260901073016 | 27 | 135 | 4.8 | 9.7 | 0.00 | 0.00 | 0.00 | 61 | 1016.0 |
| 20260901072016 | 27 | 113 | 4.8 | 8.0 | 0.00 | 0.00 | 0.00 | 59 | 1016.0 |
| 20260901071035 | 27 | 113 | 4.8 | 9.7 | 0.00 | 0.00 | 0.00 | 57 | 1015.9 |
| 20260901070015 | 27 | 135 | 6.4 | 11.3 | 0.00 | 0.00 | 0.00 | 56 | 1015.9 |
| 20260901065015 | 27 | 113 | 3.2 | 6.4 | 0.00 | 0.00 | 0.00 | 55 | 1015.7 |
| 20260901064016 | 28 | 113 | 1.6 | 4.8 | 0.00 | 0.00 | 0.00 | 53 | 1015.6 |
| 20260901063055 | 28 | 113 | 3.2 | 6.4 | 0.00 | 0.00 | 0.00 | 52 | 1015.6 |
| 20260901062015 | 28 | 113 | 4.8 | 9.7 | 0.00 | 0.00 | 0.00 | 52 | 1015.5 |
| 20260901061035 | 28 | 113 | 6.4 | 11.3 | 0.00 | 0.00 | 0.00 | 51 | 1015.5 |
| 20260901060016 | 28 | 135 | 3.2 | 11.3 | 0.00 | 0.00 | 0.00 | 51 | 1015.5 |
| 20260901055016 | 28 | 135 | 1.6 | 4.8 | 0.00 | 0.00 | 0.00 | 50 | 1015.1 |
| 20260901054015 | 28 | 0.0 | 3.2 | 0.00 | 0.00 | 0.00 | 50 | 1015.1 | |
| 20260901053015 | 28 | 135 | 1.6 | 6.4 | 0.00 | 0.00 | 0.00 | 50 | 1014.9 |
| 20260901052015 | 28 | 113 | 1.6 | 6.4 | 0.00 | 0.00 | 0.00 | 51 | 1014.9 |
| 20260901051015 | 28 | 113 | 1.6 | 3.2 | 0.00 | 0.00 | 0.00 | 52 | 1014.8 |
| 20260901050036 | 28 | 113 | 1.6 | 6.4 | 0.00 | 0.00 | 0.00 | 52 | 1014.8 |
| 20260901045015 | 28 | 113 | 3.2 | 6.4 | 0.00 | 0.00 | 0.00 | 52 | 1014.9 |
| 20260901044015 | 28 | 113 | 1.6 | 4.8 | 0.00 | 0.00 | 0.00 | 52 | 1014.8 |
| 20260901043015 | 28 | 113 | 1.6 | 4.8 | 0.00 | 0.00 | 0.00 | 52 | 1014.7 |
| 20260901042015 | 29 | 113 | 1.6 | 3.2 | 0.00 | 0.00 | 0.00 | 51 | 1014.8 |
| 20260901041016 | 29 | 113 | 3.2 | 6.4 | 0.00 | 0.00 | 0.00 | 51 | 1014.8 |
| 20260901040016 | 29 | 113 | 1.6 | 4.8 | 0.00 | 0.00 | 0.00 | 51 | 1014.7 |
| 20260901035015 | 29 | 113 | 1.6 | 4.8 | 0.00 | 0.00 | 0.00 | 51 | 1014.8 |
| 20260901034016 | 29 | 135 | 3.2 | 8.0 | 0.00 | 0.00 | 0.00 | 51 | 1014.7 |
| 20260901033035 | 29 | 0.0 | 4.8 | 0.00 | 0.00 | 0.00 | 51 | 1014.7 | |
| 20260901032016 | 30 | 113 | 3.2 | 6.4 | 0.00 | 0.00 | 0.00 | 50 | 1014.7 |
| 20260901030015 | 30 | 113 | 3.2 | 4.8 | 0.00 | 0.00 | 0.00 | 48 | 1014.5 |
| 20260901025015 | 30 | 113 | 3.2 | 4.8 | 0.00 | 0.00 | 0.00 | 48 | 1014.4 |
| 20260901024015 | 30 | 113 | 1.6 | 4.8 | 0.00 | 0.00 | 0.00 | 47 | 1014.2 |
| 20260901023016 | 31 | 113 | 3.2 | 4.8 | 0.00 | 0.00 | 0.00 | 47 | 1014.2 |
| 20260901022015 | 31 | 113 | 1.6 | 3.2 | 0.00 | 0.00 | 0.00 | 46 | 1014.1 |
| 20260901021015 | 31 | 113 | 3.2 | 4.8 | 0.00 | 0.00 | 0.00 | 45 | 1013.9 |
| 20260901020015 | 31 | 113 | 1.6 | 4.8 | 0.00 | 0.00 | 0.00 | 44 | 1013.9 |
| 20260901015015 | 32 | 0.0 | 0.0 | 0.00 | 0.00 | 0.00 | 44 | 1013.6 | |
| 20260901014015 | 32 | 113 | 3.2 | 4.8 | 0.00 | 0.00 | 0.00 | 43 | 1013.5 |
| 20260901013015 | 32 | 113 | 3.2 | 6.4 | 0.00 | 0.00 | 0.00 | 42 | 1013.5 |
| 20260901012016 | 33 | 113 | 4.8 | 11.3 | 0.00 | 0.00 | 0.00 | 41 | 1013.4 |
| 20260901011015 | 33 | 113 | 3.2 | 6.4 | 0.00 | 0.00 | 0.00 | 41 | 1013.4 |
| 20260901010015 | 33 | 113 | 3.2 | 9.7 | 0.00 | 0.00 | 0.00 | 40 | 1013.3 |
| 20260901005015 | 34 | 113 | 4.8 | 9.7 | 0.00 | 0.00 | 0.00 | 39 | 1013.3 |
| 20260901004015 | 34 | 113 | 9.7 | 16.1 | 0.00 | 0.00 | 0.00 | 38 | 1013.3 |
| 20260901003015 | 35 | 113 | 11.3 | 17.7 | 0.00 | 0.00 | 0.00 | 38 | 1013.2 |
| 20260901002015 | 35 | 113 | 9.7 | 17.7 | 0.00 | 0.00 | 0.00 | 37 | 1013.3 |
| 20260901001015 | 35 | 113 | 12.9 | 17.7 | 0.00 | 0.00 | 0.00 | 36 | 1013.3 |
| 20260901000015 | 35 | 113 | 11.3 | 20.9 | 0.00 | 0.00 | 0.00 | 36 | 1013.3 |
| 20260831235015 | 36 | 113 | 14.5 | 25.7 | 0.00 | 0.00 | 0.00 | 36 | 1013.3 |
| 20260831234016 | 36 | 135 | 6.4 | 12.9 | 0.00 | 0.00 | 0.00 | 35 | 1013.4 |
| 20260831233015 | 36 | 113 | 8.0 | 19.3 | 0.00 | 0.00 | 0.00 | 35 | 1013.3 |
| 20260831232017 | 36 | 158 | 6.4 | 12.9 | 0.00 | 0.00 | 0.00 | 34 | 1013.4 |
| 20260831231017 | 36 | 113 | 12.9 | 19.3 | 0.00 | 0.00 | 0.00 | 33 | 1013.4 |
| 20260831230017 | 36 | 113 | 12.9 | 22.5 | 0.00 | 0.00 | 0.00 | 34 | 1013.3 |
| 20260831225017 | 36 | 113 | 6.4 | 14.5 | 0.00 | 0.00 | 0.00 | 33 | 1013.4 |
| 20260831224017 | 37 | 113 | 11.3 | 19.3 | 0.00 | 0.00 | 0.00 | 33 | 1013.5 |
| 20260831223017 | 37 | 113 | 19.3 | 27.4 | 0.00 | 0.00 | 0.00 | 32 | 1013.5 |
| 20260831222017 | 36 | 158 | 9.7 | 16.1 | 0.00 | 0.00 | 0.00 | 32 | 1013.5 |
| 20260831221017 | 36 | 135 | 12.9 | 20.9 | 0.00 | 0.00 | 0.00 | 33 | 1013.6 |
| 20260831220018 | 36 | 113 | 8.0 | 16.1 | 0.00 | 0.00 | 0.00 | 33 | 1013.7 |
| 20260831215015 | 36 | 113 | 14.5 | 20.9 | 0.00 | 0.00 | 0.00 | 32 | 1013.8 |
| 20260831214017 | 36 | 113 | 14.5 | 22.5 | 0.00 | 0.00 | 0.00 | 33 | 1013.9 |
| 20260831213015 | 37 | 113 | 11.3 | 19.3 | 0.00 | 0.00 | 0.00 | 32 | 1013.9 |
| 20260831212037 | 37 | 113 | 16.1 | 25.7 | 0.00 | 0.00 | 0.00 | 33 | 1014.1 |
| 20260831211015 | 36 | 113 | 11.3 | 20.9 | 0.00 | 0.00 | 0.00 | 34 | 1014.2 |
| 20260831210017 | 37 | 90 | 11.3 | 24.1 | 0.00 | 0.00 | 0.00 | 33 | 1014.3 |
| 20260831205015 | 37 | 68 | 12.9 | 22.5 | 0.00 | 0.00 | 0.00 | 32 | 1014.5 |
| 20260831204017 | 37 | 113 | 16.1 | 32.2 | 0.00 | 0.00 | 0.00 | 33 | 1014.6 |
| 20260831203017 | 37 | 135 | 14.5 | 24.1 | 0.00 | 0.00 | 0.00 | 33 | 1014.9 |
| 20260831202017 | 37 | 158 | 6.4 | 22.5 | 0.00 | 0.00 | 0.00 | 33 | 1014.9 |
| 20260831201017 | 37 | 158 | 8.0 | 30.6 | 0.00 | 0.00 | 0.00 | 35 | 1015.1 |
| 20260831200017 | 36 | 135 | 12.9 | 22.5 | 0.00 | 0.00 | 0.00 | 35 | 1015.2 |
| 20260831195017 | 37 | 90 | 11.3 | 22.5 | 0.00 | 0.00 | 0.00 | 34 | 1015.3 |
| 20260831194017 | 37 | 113 | 12.9 | 20.9 | 0.00 | 0.00 | 0.00 | 35 | 1015.3 |
| 20260831193037 | 36 | 113 | 8.0 | 20.9 | 0.00 | 0.00 | 0.00 | 37 | 1015.5 |
| 20260831192017 | 36 | 135 | 19.3 | 37.0 | 0.00 | 0.00 | 0.00 | 36 | 1015.7 |
| 20260831191037 | 37 | 113 | 14.5 | 27.4 | 0.00 | 0.00 | 0.00 | 37 | 1015.8 |